GW6504 Weather Reports


time (UTC)temp
C
wind
direction
speed
KPH
gust
KPH
rain 1hr
cm
rain 24hr
cm
rain mn
cm
humidity
%
barometer
mb
20260906064003 12 56 3.2 9.7 0.00 0.00 0.00 74 1008.9
20260906063504 11 37 1.6 9.7 0.00 0.00 0.00 76 1008.9
20260906063003 11 358 1.6 4.8 0.00 0.00 0.00 76 1008.9
20260906062503 11 351 3.2 6.4 0.00 0.00 0.00 77 1008.8
20260906062003 11 40 3.2 6.4 0.00 0.00 0.00 78 1008.7
20260906061715 11 30 1.6 6.4 0.00 0.00 0.00 79 1008.7
20260906061003 11 41 0.0 3.2 0.00 0.00 0.00 81 1008.8
20260906060503 11 50 0.0 3.2 0.00 0.00 0.00 82 1008.7
20260906060004 11 45 0.0 3.2 0.00 0.00 0.00 82 1008.6
20260906055504 11 45 0.0 3.2 0.00 0.00 0.00 83 1008.4
20260906055003 10 45 0.0 3.2 0.00 0.00 0.00 83 1008.5
20260906054505 10 315 0.0 1.6 0.00 0.00 0.00 84 1008.4
20260906054003 10 227 0.0 3.2 0.00 0.00 0.00 83 1008.4
20260906053713 10 165 0.0 3.2 0.00 0.00 0.00 83 1008.4
20260906053003 10 78 1.6 3.2 0.00 0.00 0.00 84 1008.3
20260906052503 10 78 3.2 3.2 0.00 0.00 0.00 85 1008.5
20260906052003 10 38 3.2 6.4 0.00 0.00 0.00 86 1008.4
20260906051504 10 4 3.2 6.4 0.00 0.00 0.00 88 1008.3
20260906051003 10 76 1.6 4.8 0.00 0.00 0.00 90 1008.2
20260906050504 9 80 1.6 4.8 0.00 0.00 0.00 91 1008.0
20260906050004 9 48 1.6 3.2 0.00 0.00 0.00 91 1008.0
20260906045503 8 38 1.6 6.4 0.00 0.00 0.00 92 1007.9
20260906045004 8 34 3.2 6.4 0.00 0.00 0.00 93 1007.8
20260906044503 8 2 3.2 4.8 0.00 0.00 0.00 93 1008.0
20260906044216 8 2 3.2 4.8 0.00 0.00 0.00 93 1007.9
20260906043503 7 7 1.6 4.8 0.00 0.00 0.00 93 1007.6
20260906043003 7 9 1.6 4.8 0.00 0.00 0.00 93 1007.7
20260906042715 7 22 0.0 3.2 0.00 0.00 0.00 93 1007.8
20260906042005 7 30 1.6 3.2 0.00 0.00 0.00 92 1007.7
20260906041504 7 24 0.0 3.2 0.00 0.00 0.00 92 1007.7
20260906041214 7 22 0.0 1.6 0.00 0.00 0.00 92 1007.5
20260906040503 7 22 0.0 3.2 0.00 0.00 0.00 92 1007.4
20260906040004 7 22 0.0 1.6 0.00 0.00 0.00 92 1007.5
20260906035713 7 15 0.0 1.6 0.00 0.00 0.00 92 1007.5
20260906035216 7 15 0.0 1.6 0.00 0.00 0.00 92 1007.3
20260906034504 7 22 0.0 1.6 0.00 0.00 0.00 92 1007.3
20260906034003 7 15 0.0 3.2 0.00 0.00 0.00 92 1007.3
20260906033503 7 17 1.6 3.2 0.00 0.00 0.00 92 1007.2
20260906033003 7 33 1.6 4.8 0.00 0.00 0.00 93 1007.1
20260906032503 7 38 3.2 6.4 0.00 0.00 0.00 93 1007.0
20260906032004 7 34 3.2 6.4 0.00 0.00 0.00 93 1007.0
20260906031504 7 31 3.2 4.8 0.00 0.00 0.00 93 1006.8
20260906031003 7 38 1.6 4.8 0.00 0.00 0.00 93 1006.8
20260906030504 7 53 1.6 6.4 0.00 0.00 0.00 93 1006.7
20260906030004 7 46 1.6 6.4 0.00 0.00 0.00 92 1006.8
20260906025713 7 49 1.6 6.4 0.00 0.00 0.00 92 1006.6
20260906025003 7 30 1.6 3.2 0.00 0.00 0.00 92 1006.6
20260906024503 7 25 1.6 3.2 0.00 0.00 0.00 91 1006.5
20260906024003 7 28 1.6 3.2 0.00 0.00 0.00 91 1006.5
20260906023503 7 30 1.6 3.2 0.00 0.00 0.00 91 1006.4
20260906023003 7 15 0.0 3.2 0.00 0.00 0.00 91 1006.3
20260906022503 7 18 1.6 3.2 0.00 0.00 0.00 91 1006.3
20260906022003 7 25 1.6 3.2 0.00 0.00 0.00 91 1006.3
20260906021717 7 26 1.6 3.2 0.00 0.00 0.00 91 1006.1
20260906021003 7 26 1.6 3.2 0.00 0.00 0.00 91 1006.0
20260906020503 7 34 1.6 4.8 0.00 0.00 0.00 91 1005.9
20260906020004 7 36 1.6 4.8 0.00 0.00 0.00 91 1006.0
20260906015503 7 39 3.2 4.8 0.00 0.00 0.00 91 1005.8
20260906015004 7 36 3.2 4.8 0.00 0.00 0.00 91 1005.8
20260906014503 7 31 1.6 3.2 0.00 0.00 0.00 90 1005.8
20260906014003 7 35 1.6 4.8 0.00 0.00 0.00 90 1005.7
20260906013716 7 28 1.6 4.8 0.00 0.00 0.00 90 1005.6
20260906013003 8 29 1.6 4.8 0.00 0.00 0.00 89 1005.6
20260906012717 8 30 1.6 3.2 0.00 0.00 0.00 89 1005.6
20260906012215 8 34 1.6 6.4 0.00 0.00 0.00 89 1005.6
20260906011503 8 44 3.2 6.4 0.00 0.00 0.00 89 1005.6
20260906011003 8 51 1.6 6.4 0.00 0.00 0.00 89 1005.5
20260906010503 8 55 3.2 6.4 0.00 0.00 0.00 89 1005.4
20260906010004 8 49 1.6 6.4 0.00 0.00 0.00 89 1005.5
20260906005503 8 39 1.6 4.8 0.00 0.00 0.00 88 1005.4
20260906005212 8 34 1.6 4.8 0.00 0.00 0.00 88 1005.3
20260906004504 8 34 3.2 6.4 0.00 0.00 0.00 88 1005.3
20260906004003 8 29 1.6 6.4 0.00 0.00 0.00 88 1005.2
20260906003716 8 19 1.6 6.4 0.00 0.00 0.00 87 1005.0
20260906003004 8 28 1.6 6.4 0.00 0.00 0.00 86 1005.2
20260906002503 8 28 1.6 3.2 0.00 0.00 0.00 85 1005.1
20260906002003 8 28 1.6 3.2 0.00 0.00 0.00 85 1005.0
20260906001503 9 30 1.6 3.2 0.00 0.00 0.00 85 1005.0
20260906001003 9 32 1.6 3.2 0.00 0.00 0.00 84 1004.8
20260906000714 9 40 1.6 8.0 0.00 0.00 0.00 84 1004.8
20260906000219 9 29 3.2 8.0 0.00 0.00 0.00 84 1004.7
20260905235503 10 26 3.2 6.4 0.00 0.00 0.00 83 1004.6
20260905235213 10 25 1.6 4.8 0.00 0.00 0.00 83 1004.5
20260905234716 10 30 3.2 4.8 0.00 0.00 0.00 82 1004.4
20260905234003 10 50 4.8 6.4 0.00 0.00 0.00 81 1004.4
20260905233503 10 46 4.8 9.7 0.00 0.00 0.00 81 1004.2
20260905233003 10 32 4.8 9.7 0.00 0.00 0.00 82 1004.4
20260905232503 10 37 6.4 11.3 0.00 0.00 0.00 81 1004.2
20260905232216 10 37 4.8 11.3 0.00 0.00 0.00 81 1004.3
20260905231714 10 28 4.8 8.0 0.00 0.00 0.00 81 1004.1
20260905231003 10 37 4.8 8.0 0.00 0.00 0.00 81 1003.9
20260905230503 10 37 3.2 6.4 0.00 0.00 0.00 81 1003.9
20260905230213 10 46 3.2 4.8 0.00 0.00 0.00 81 1003.8
20260905225503 10 45 3.2 4.8 0.00 0.00 0.00 81 1003.8
20260905225003 10 48 3.2 4.8 0.00 0.00 0.00 81 1003.8
20260905224504 10 39 3.2 8.0 0.00 0.00 0.00 81 1003.5
20260905224003 10 28 4.8 11.3 0.00 0.00 0.00 81 1003.7
20260905223503 10 27 3.2 11.3 0.00 0.00 0.00 81 1003.7
20260905223004 11 50 1.6 8.0 0.00 0.00 0.00 81 1003.7
20260905222503 11 54 3.2 8.0 0.00 0.00 0.00 80 1003.5
20260905222004 11 48 4.8 8.0 0.00 0.00 0.00 80 1003.5
20260905221714 11 44 4.8 6.4 0.00 0.00 0.00 80 1003.4
20260905221003 11 26 3.2 6.4 0.00 0.00 0.00 80 1003.4
20260905220716 11 22 1.6 6.4 0.00 0.00 0.00 80 1003.3
20260905220004 11 49 3.2 6.4 0.00 0.00 0.00 80 1003.1
20260905215716 11 50 4.8 6.4 0.00 0.00 0.00 80 1003.2
20260905215003 11 78 4.8 6.4 0.00 0.00 0.00 80 1003.1
20260905214717 12 71 4.8 6.4 0.00 0.00 0.00 79 1003.1
20260905214003 12 36 4.8 6.4 0.00 0.00 0.00 79 1002.8
20260905213503 12 38 4.8 6.4 0.00 0.00 0.00 80 1002.8
20260905213003 12 42 4.8 6.4 0.00 0.00 0.00 80 1002.8
20260905212503 12 61 3.2 6.4 0.00 0.00 0.00 80 1002.8
20260905212003 12 53 3.2 6.4 0.00 0.00 0.00 81 1002.8
20260905211503 12 11 1.6 4.8 0.00 0.00 0.00 81 1002.7
20260905211213 12 4 1.6 8.0 0.00 0.00 0.00 82 1002.6
20260905210503 12 37 3.2 8.0 0.00 0.00 0.00 83 1002.5
20260905210034 12 58 3.2 6.4 0.00 0.00 0.00 84 1002.4
20260905205503 12 61 3.2 6.4 0.00 0.00 0.00 85 1002.2
20260905205003 12 81 3.2 4.8 0.00 0.00 0.00 86 1002.2
20260905204713 12 77 1.6 4.8 0.00 0.00 0.00 86 1002.1
20260905204004 12 57 1.6 4.8 0.00 0.00 0.00 86 1002.1
20260905203503 12 45 0.0 3.2 0.00 0.00 0.00 86 1001.9
20260905203003 12 0 0.0 0.0 0.00 0.00 0.00 86 1001.9
20260905202503 12 0 0.0 0.0 0.00 0.00 0.00 86 1001.8
20260905202213 12 0 0.0 0.0 0.00 0.00 0.00 86 1001.9
20260905201503 12 353 0.0 3.2 0.00 0.00 0.00 86 1001.6
20260905201003 12 22 0.0 3.2 0.00 0.00 0.00 85 1001.7
20260905200505 12 45 0.0 3.2 0.00 0.00 0.00 85 1001.6
20260905200004 12 0 0.0 0.0 0.00 0.00 0.00 84 1001.6
20260905195712 12 0 0.0 0.0 0.00 0.00 0.00 84 1001.5
20260905195004 12 0 0.0 0.0 0.00 0.00 0.00 84 1001.6
20260905194505 12 0 0.0 0.0 0.00 0.00 0.00 84 1001.4
20260905194003 12 0 0.0 0.0 0.00 0.00 0.00 83 1001.4
20260905193503 12 0 0.0 0.0 0.00 0.00 0.00 83 1001.4
20260905193003 12 0 0.0 0.0 0.00 0.00 0.00 83 1001.3
20260905192503 12 0 0.0 0.0 0.00 0.00 0.00 83 1001.3
20260905192004 12 0 0.0 0.0 0.00 0.00 0.00 83 1001.3
20260905191504 12 0 0.0 0.0 0.00 0.00 0.00 83 1001.3
20260905191003 12 0 0.0 0.0 0.00 0.00 0.00 83 1001.3
20260905190506 12 0 0.0 0.0 0.00 0.00 0.00 83 1001.3
20260905190004 12 0 0.0 0.0 0.00 0.00 0.00 82 1001.1
20260905185503 12 0 0.0 0.0 0.00 0.00 0.00 82 1001.3
20260905185004 12 0 0.0 0.0 0.00 0.00 0.00 82 1001.2
20260905184503 12 0 0.0 0.0 0.00 0.00 0.00 82 1001.2
20260905184217 12 0 0.0 0.0 0.00 0.00 0.00 81 1001.0
20260905183503 12 0 0.0 0.0 0.00 0.00 0.00 81 1001.0
20260905183003 12 0 0.0 0.0 0.00 0.00 0.00 80 1001.1
20260905182503 12 0 0.0 0.0 0.00 0.00 0.00 80 1001.1
20260905182003 12 0 0.0 0.0 0.00 0.00 0.00 80 1001.0
20260905181717 13 0 0.0 0.0 0.00 0.00 0.00 80 1001.0
20260905181003 13 0 0.0 0.0 0.00 0.00 0.00 79 1000.9
20260905180503 13 0 0.0 0.0 0.00 0.00 0.00 78 1000.9
20260905180004 13 0 0.0 0.0 0.00 0.00 0.00 78 1000.8
20260905175503 13 0 0.0 0.0 0.00 0.00 0.00 77 1000.8
20260905175003 13 0 0.0 0.0 0.00 0.00 0.00 76 1000.8
20260905174503 13 0 0.0 0.0 0.00 0.00 0.00 76 1000.8
20260905174003 13 0 0.0 0.0 0.00 0.00 0.00 75 1000.8
20260905173503 13 0 0.0 0.0 0.00 0.00 0.00 75 1000.8
20260905173004 13 0 0.0 0.0 0.00 0.00 0.00 75 1000.6
20260905172503 13 0 0.0 0.0 0.00 0.00 0.00 74 1000.6
20260905172215 13 0 0.0 0.0 0.00 0.00 0.00 74 1000.4
20260905171503 13 315 0.0 1.6 0.00 0.00 0.00 73 1000.5
20260905171216 13 283 1.6 3.2 0.00 0.00 0.00 73 1000.4
20260905170503 13 264 0.0 3.2 0.00 0.00 0.00 72 1000.3
20260905170217 13 0 0.0 0.0 0.00 0.00 0.00 71 1000.3
20260905165503 14 90 0.0 1.6 0.00 0.00 0.00 71 1000.1
20260905165003 14 90 0.0 1.6 0.00 0.00 0.00 71 1000.1
20260905164503 14 45 0.0 3.2 0.00 0.00 0.00 70 1000.0
20260905164003 14 45 0.0 3.2 0.00 0.00 0.00 69 1000.1
20260905163504 15 0 0.0 0.0 0.00 0.00 0.00 68 999.9
20260905163214 15 0 0.0 0.0 0.00 0.00 0.00 68 1000.0
20260905162503 15 6 3.2 8.0 0.00 0.00 0.00 65 999.7
20260905162215 15 358 3.2 8.0 0.00 0.00 0.00 65 999.7
20260905161503 15 38 3.2 6.4 0.00 0.00 0.00 63 999.7
20260905161003 15 360 3.2 6.4 0.00 0.00 0.00 63 999.6
20260905160503 15 347 1.6 6.4 0.00 0.00 0.00 62 999.6
20260905160004 16 340 3.2 9.7 0.00 0.00 0.00 61 999.4
20260905155715 16 20 4.8 9.7 0.00 0.00 0.00 59 999.5
20260905155003 16 10 4.8 9.7 0.00 0.00 0.00 60 999.5
20260905154503 16 30 4.8 9.7 0.00 0.00 0.00 60 999.4
20260905154003 16 102 4.8 8.0 0.00 0.00 0.00 61 999.3
20260905153717 16 47 3.2 8.0 0.00 0.00 0.00 61 999.3
20260905153004 16 324 1.6 4.8 0.00 0.00 0.00 60 999.2
20260905152503 16 317 1.6 3.2 0.00 0.00 0.00 60 999.2
20260905152003 17 342 3.2 8.0 0.00 0.00 0.00 59 999.0
20260905151504 17 350 3.2 8.0 0.00 0.00 0.00 57 999.1
20260905151003 17 356 3.2 6.4 0.00 0.00 0.00 58 999.0
20260905150503 17 346 3.2 6.4 0.00 0.00 0.00 58 999.0
20260905150004 17 347 3.2 8.0 0.00 0.00 0.00 57 998.9
20260905145503 17 348 4.8 8.0 0.00 0.00 0.00 55 998.8
20260905145003 17 310 4.8 6.4 0.00 0.00 0.00 55 998.9
20260905144717 17 308 4.8 6.4 0.00 0.00 0.00 55 998.8
20260905144004 17 305 4.8 8.0 0.00 0.00 0.00 53 998.7
20260905143503 17 311 3.2 6.4 0.00 0.00 0.00 52 998.6
20260905143003 17 360 3.2 6.4 0.00 0.00 0.00 50 998.6
20260905142503 17 340 3.2 6.4 0.00 0.00 0.00 50 998.5
20260905142004 17 337 3.2 6.4 0.00 0.00 0.00 50 998.5
20260905141503 17 12 4.8 8.0 0.00 0.00 0.00 49 998.5
20260905141003 17 9 4.8 8.0 0.00 0.00 0.00 48 998.5
20260905140503 17 320 3.2 6.4 0.00 0.00 0.00 48 998.3
20260905140004 18 346 3.2 6.4 0.00 0.00 0.00 46 998.3
20260905135503 18 317 3.2 6.4 0.00 0.00 0.00 48 998.3
20260905135003 18 278 3.2 6.4 0.00 0.00 0.00 49 998.2
20260905134503 17 316 3.2 6.4 0.00 0.00 0.00 52 998.1
20260905134003 17 18 3.2 6.4 0.00 0.00 0.00 49 998.0
20260905133713 17 46 3.2 6.4 0.00 0.00 0.00 50 998.2
20260905133003 17 359 3.2 6.4 0.00 0.00 0.00 50 998.2
20260905132503 17 312 1.6 3.2 0.00 0.00 0.00 52 998.2
20260905132003 17 352 1.6 4.8 0.00 0.00 0.00 53 998.2
20260905131715 17 49 3.2 8.0 0.00 0.00 0.00 51 998.1
20260905131003 17 349 3.2 9.7 0.00 0.00 0.00 49 998.1
20260905130503 18 315 3.2 6.4 0.00 0.00 0.00 52 998.1
20260905130004 18 52 3.2 12.9 0.00 0.00 0.00 51 998.0
20260905125503 18 52 4.8 12.9 0.00 0.00 0.00 52 997.8
20260905125004 18 13 3.2 9.7 0.00 0.00 0.00 53 997.9
20260905124503 17 323 3.2 4.8 0.00 0.00 0.00 51 997.8
20260905124003 17 323 3.2 4.8 0.00 0.00 0.00 51 997.8
20260905123504 17 7 3.2 4.8 0.00 0.00 0.00 51 997.8
20260905123217 17 295 1.6 4.8 0.00 0.00 0.00 51 997.9
20260905122504 17 274 4.8 9.7 0.00 0.00 0.00 50 997.9
20260905122003 17 339 6.4 9.7 0.00 0.00 0.00 50 997.9
20260905121503 17 23 4.8 12.9 0.00 0.00 0.00 52 997.8
20260905121003 17 54 6.4 12.9 0.00 0.00 0.00 51 997.9
20260905120503 17 77 4.8 12.9 0.00 0.00 0.00 51 997.8
20260905120004 17 196 3.2 9.7 0.00 0.00 0.00 53 997.8
20260905115503 17 21 3.2 6.4 0.00 0.00 0.00 53 997.6
20260905115003 17 5 3.2 6.4 0.00 0.00 0.00 51 997.8
20260905114713 17 4 3.2 6.4 0.00 0.00 0.00 53 997.7
20260905114003 17 6 1.6 3.2 0.00 0.00 0.00 52 997.4
20260905113503 17 29 3.2 6.4 0.00 0.00 0.00 50 997.5
20260905113004 17 29 3.2 6.4 0.00 0.00 0.00 48 997.6
20260905112503 17 51 3.2 6.4 0.00 0.00 0.00 52 997.5
20260905112006 17 56 3.2 6.4 0.00 0.00 0.00 49 997.5
20260905111503 17 346 1.6 4.8 0.00 0.00 0.00 50 997.5
20260905111214 17 318 1.6 3.2 0.00 0.00 0.00 51 997.3
20260905110503 17 322 3.2 6.4 0.00 0.00 0.00 50 997.3
20260905110004 17 349 3.2 6.4 0.00 0.00 0.00 50 997.3
20260905105503 17 24 3.2 6.4 0.00 0.00 0.00 49 997.3
20260905105003 17 37 3.2 6.4 0.00 0.00 0.00 51 997.1
20260905104503 17 37 4.8 6.4 0.00 0.00 0.00 51 997.2
20260905104003 17 256 3.2 6.4 0.00 0.00 0.00 54 997.0
20260905103503 17 4 3.2 6.4 0.00 0.00 0.00 54 997.0
20260905103003 17 32 3.2 6.4 0.00 0.00 0.00 54 997.1
20260905102503 16 309 3.2 6.4 0.00 0.00 0.00 56 997.1
20260905102003 17 351 1.6 3.2 0.00 0.00 0.00 57 996.9
20260905101503 17 13 1.6 4.8 0.00 0.00 0.00 55 997.1
20260905101003 17 27 3.2 4.8 0.00 0.00 0.00 57 997.0
20260905100503 16 3 3.2 4.8 0.00 0.00 0.00 57 997.0
20260905100003 16 292 1.6 3.2 0.00 0.00 0.00 59 996.9
20260905095503 16 13 3.2 4.8 0.00 0.00 0.00 58 996.8
20260905095003 16 28 3.2 4.8 0.00 0.00 0.00 58 996.7
20260905094503 16 117 3.2 6.4 0.00 0.00 0.00 60 996.8
20260905094005 16 188 1.6 6.4 0.00 0.00 0.00 57 996.7
20260905093503 16 355 1.6 6.4 0.00 0.00 0.00 57 996.7
20260905093003 16 328 1.6 4.8 0.00 0.00 0.00 59 996.7
20260905092503 17 348 1.6 6.4 0.00 0.00 0.00 54 996.6
20260905092215 17 355 1.6 6.4 0.00 0.00 0.00 53 996.6
20260905091503 18 270 0.0 3.2 0.00 0.00 0.00 55 996.5
20260905091003 18 0 0.0 0.0 0.00 0.00 0.00 55 996.5
20260905090503 18 257 0.0 3.2 0.00 0.00 0.00 53 996.4
20260905090004 19 244 0.0 3.2 0.00 0.00 0.00 53 996.4
20260905085503 20 74 0.0 3.2 0.00 0.00 0.00 52 996.4
20260905085217 20 47 1.6 3.2 0.00 0.00 0.00 52 996.5
20260905084503 20 25 1.6 6.4 0.00 0.00 0.00 52 996.3
20260905084003 20 326 1.6 6.4 0.00 0.00 0.00 51 996.4
20260905083716 20 270 1.6 4.8 0.00 0.00 0.00 52 996.4
20260905083214 20 350 3.2 4.8 0.00 0.00 0.00 50 996.4
20260905082712 20 38 1.6 6.4 0.00 0.00 0.00 50 996.3
20260905082215 20 22 1.6 6.4 0.00 0.00 0.00 52 996.2
20260905081503 19 29 3.2 6.4 0.00 0.00 0.00 55 996.1
20260905081003 20 27 3.2 6.4 0.00 0.00 0.00 56 996.1
20260905080503 20 40 1.6 4.8 0.00 0.00 0.00 55 996.2
20260905080004 19 56 1.6 6.4 0.00 0.00 0.00 58 996.3
20260905075715 18 50 1.6 6.4 0.00 0.00 0.00 56 996.3
20260905075003 18 41 3.2 4.8 0.00 0.00 0.00 59 996.0
20260905074716 18 33 3.2 4.8 0.00 0.00 0.00 58 996.1
20260905074003 18 19 3.2 4.8 0.00 0.00 0.00 63 996.1
20260905073504 17 104 3.2 6.4 0.00 0.00 0.00 63 996.0
20260905073003 17 63 3.2 6.4 0.00 0.00 0.00 65 996.0
20260905072503 16 4 3.2 6.4 0.00 0.00 0.00 67 996.0
20260905072216 17 33 1.6 6.4 0.00 0.00 0.00 65 996.1
20260905071503 16 339 1.6 4.8 0.00 0.00 0.00 70 996.0
20260905071004 16 22 0.0 3.2 0.00 0.00 0.00 76 996.0
20260905070503 16 360 0.0 1.6 0.00 0.00 0.00 79 995.9
20260905070004 15 360 0.0 1.6 0.00 0.00 0.00 81 996.0
20260905065716 15 22 0.0 1.6 0.00 0.00 0.00 84 995.9
20260905065214 15 0 0.0 0.0 0.00 0.00 0.00 90 995.8
20260905064503 13 33 1.6 4.8 0.00 0.00 0.00 93 995.8